Starlink 30553

operational
NORAD ID: 58056 Int'l Des: 2023-158 Owner: SPXS Country: US Constellation: starlink
LEOCIRCULAR

Über Starlink 30553

Beschreibung wird geladen...

Live-Position

3D-Globus wird geladen...

Nächste Überflüge

Höhenverlauf

Altitude vs Time

uPlot chart will show altitude changes over time

Zweizeiliger Elementsatz

1 58056U 23158F 25354.00371400 -.00001042 00000-0 -62053-4 0 9996
2 58056 43.0039 103.3958 0001452 265.8366 94.2310 15.02543116121542
Epoch: 20. Dez. 2025 • Age: 12 hours

Aktueller Status

Höhe 561.5 km
Geschwindigkeit 7.59 km/s
Subsatellitenpunkt 35.40°N, 34.83°W
Startdatum 13. Okt. 2023
Alter 2.1 years
Typ internet

Technische Details

Klassifizierung Payload
Masse 730.00 kg
Trockenmasse 700.00 kg
Gesamtmasse 730.00 kg
Länge 0.30 m
Durchmesser 4.10 m
Spannweite 29.00 m
Form Box + pan
Hersteller SPXS
Bus-Typ Starlink V2M
Phasenstatus In Orbit
Besitzer/Staat SPXS/US

Große Konstellationen

Loading constellations...